QPF
0.00 0.00 0.00 0.00 0.00 0.00 0.00 0.00 0.00 0.00 0.00 0.00 0.00 0.00 0.00 0.00 0.00 0.00 0.00 0.00 0.00 0.03 0.05 0.02 0.01 0.03 0.02 0.00 0.00 0.00 0.00 0.00 0.00 0.00 0.00 0.00 0.00 0.00 0.00 0.00 0.00 0.00 0.00
0.00 0.00 0.00 0.00 0.00 0.00 0.00 0.00 0.00 0.00 0.00 0.00 0.00 0.00 0.00 0.00 0.00 0.00 0.00 0.00 0.00 0.00 0.01 0.01 0.01 0.03 0.03 0.03 0.02 0.01 0.00 0.00 0.00 0.00 0.00 0.00 0.00 0.00 0.00 0.00 0.00 0.00 0.00
0.00 0.00 0.00 0.00 0.00 0.00 0.00 0.00 0.00 0.00 0.00 0.00 0.00 0.00 0.00 0.00 0.00 0.00 0.00 0.00 0.00 0.00 0.00 0.02 0.05 0.04 0.04 0.04 0.02 0.03 0.01 0.00 0.00 0.00 0.00 0.00 0.00 0.00 0.00 0.00 0.00 0.00 0.00
0.00 0.00 0.00 0.00 0.00 0.00 0.00 0.00 0.00 0.00 0.00 0.00 0.00 0.00 0.00 0.00 0.00 0.00 0.00 0.00 0.00 0.00 0.00 0.02 0.05 0.07 0.07 0.05 0.04 0.03 0.03 0.01 0.00 0.01 0.00 0.00 0.00 0.00 0.00 0.00 0.00 0.00 0.00
0.00 0.00 0.00 0.00 0.00 0.00 0.00 0.00 0.00 0.00 0.00 0.00 0.00 0.00 0.00 0.00 0.00 0.00 0.00 0.00 0.00 0.00 0.00 0.01 0.03 0.05 0.09 0.09 0.10 0.07 0.05 0.02 0.00 0.01 0.01 0.00 0.00 0.00 0.00 0.00 0.00 0.00 0.00
0.00 0.00 0.00 0.00 0.00 0.00 0.00 0.00 0.00 0.00 0.00 0.00 0.00 0.00 0.00 0.00 0.00 0.00 0.00 0.00 0.00 0.00 0.00 0.00 0.01 0.02 0.04 0.08 0.11 0.11 0.09 0.06 0.03 0.01 0.03 0.02 0.01 0.00 0.00 0.00 0.00 0.00 0.00
0.00 0.00 0.00 0.00 0.00 0.00 0.00 0.00 0.00 0.00 0.00 0.00 0.00 0.00 0.00 0.00 0.00 0.00 0.00 0.00 0.00 0.00 0.00 0.00 0.00 0.00 0.01 0.03 0.08 0.10 0.12 0.14 0.09 0.04 0.03 0.03 0.03 0.03 0.01 0.00 0.00 0.00 0.00
0.00 0.00 0.00 0.00 0.00 0.00 0.00 0.00 0.00 0.00 0.00 0.00 0.00 0.00 0.00 0.00 0.00 0.00 0.00 0.00 0.00 0.00 0.00 0.00 0.00 0.00 0.01 0.02 0.04 0.08 0.10 0.12 0.16 0.10 0.06 0.04 0.03 0.04 0.04 0.03 0.01 0.01 0.01
0.00 0.00 0.00 0.00 0.00 0.00 0.00 0.00 0.00 0.00 0.00 0.00 0.00 0.00 0.00 0.00 0.00 0.00 0.00 0.00 0.00 0.00 0.00 0.00 0.00 0.00 0.00 0.01 0.02 0.04 0.06 0.08 0.09 0.10 0.11 0.11 0.07 0.05 0.09 0.13 0.10 0.11 0.17
0.07 0.09 0.10 0.06 0.03 0.02 0.01 0.00 0.00 0.00 0.00 0.00 0.00 0.00 0.00 0.00 0.00 0.00 0.00 0.00 0.00 0.00 0.00 0.00 0.00 0.00 0.01 0.02 0.02 0.02 0.03 0.09 0.14 0.11 0.08 0.10 0.09 0.07 0.10 0.18 0.23 0.25 0.23
0.12 0.14 0.14 0.11 0.07 0.04 0.02 0.01 0.00 0.00 0.00 0.00 0.00 0.00 0.00 0.00 0.00 0.00 0.00 0.00 0.00 0.00 0.00 0.00 0.00 0.00 0.00 0.00 0.00 0.01 0.02 0.03 0.04 0.05 0.05 0.06 0.10 0.12 0.10 0.09 0.11 0.13 0.17
0.08 0.08 0.12 0.06 0.02 0.03 0.02 0.01 0.00 0.00 0.00 0.00 0.00 0.00 0.00 0.00 0.00 0.00 0.00 0.00 0.00 0.00 0.00 0.00 0.00 0.00 0.00 0.00 0.00 0.00 0.02 0.06 0.05 0.06 0.05 0.05 0.07 0.08 0.08 0.06 0.05 0.04 0.03
0.01 0.00 0.02 0.02 0.00 0.01 0.03 0.03 0.01 0.00 0.00 0.00 0.00 0.00 0.00 0.00 0.00 0.00 0.00 0.00 0.00 0.00 0.00 0.00 0.00 0.00 0.00 0.00 0.00 0.00 0.00 0.03 0.05 0.06 0.07 0.04 0.06 0.07 0.07 0.06 0.03 0.02 0.02
0.00 0.00 0.00 0.00 0.00 0.00 0.00 0.01 0.01 0.00 0.00 0.00 0.00 0.00 0.00 0.00 0.00 0.00 0.00 0.00 0.00 0.00 0.00 0.01 0.01 0.00 0.00 0.00 0.00 0.00 0.00 0.01 0.03 0.04 0.04 0.05 0.07 0.10 0.09 0.07 0.05 0.05 0.03
0.00 0.00 0.00 0.00 0.00 0.00 0.00 0.00 0.00 0.00 0.00 0.00 0.00 0.00 0.00 0.00 0.00 0.01 0.03 0.02 0.03 0.01 0.02 0.02 0.02 0.01 0.01 0.00 0.00 0.00 0.01 0.03 0.05 0.09 0.12 0.11 0.10 0.13 0.12 0.07 0.04 0.02 0.01
0.00 0.00 0.00 0.00 0.00 0.00 0.00 0.00 0.00 0.00 0.00 0.00 0.00 0.00 0.00 0.00 0.00 0.00 0.00 0.00 0.01 0.01 0.00 0.00 0.01 0.01 0.02 0.01 0.01 0.00 0.00 0.03 0.04 0.04 0.07 0.10 0.10 0.07 0.05 0.02 0.04 0.05 0.04
0.00 0.00 0.00 0.00 0.00 0.00 0.00 0.00 0.00 0.00 0.00 0.00 0.00 0.00 0.00 0.00 0.00 0.00 0.00 0.00 0.00 0.00 0.00 0.00 0.00 0.00 0.00 0.03 0.02 0.06 0.06 0.07 0.06 0.07 0.05 0.03 0.03 0.03 0.03 0.03 0.03 0.04 0.05
0.00 0.00 0.00 0.00 0.00 0.00 0.00 0.00 0.00 0.00 0.00 0.00 0.00 0.00 0.00 0.00 0.00 0.00 0.00 0.00 0.00 0.00 0.00 0.00 0.00 0.00 0.00 0.00 0.01 0.02 0.01 0.01 0.01 0.01 0.01 0.01 0.02 0.02 0.03 0.03 0.04 0.05 0.06
0.00 0.00 0.00 0.00 0.00 0.00 0.00 0.00 0.00 0.00 0.00 0.00 0.00 0.00 0.00 0.00 0.00 0.00 0.00 0.00 0.00 0.00 0.00 0.00 0.00 0.00 0.00 0.01 0.04 0.04 0.03 0.01 0.01 0.00 0.01 0.03 0.04 0.09 0.08 0.05 0.06 0.06 0.03
0.00 0.00 0.00 0.00 0.00 0.00 0.00 0.00 0.00 0.00 0.00 0.00 0.00 0.00 0.00 0.00 0.00 0.00 0.00 0.00 0.00 0.00 0.00 0.01 0.02 0.04 0.04 0.06 0.16 0.19 0.21 0.11 0.06 0.07 0.09 0.10 0.07 0.10 0.07 0.04 0.03 0.01 0.00
0.00 0.00 0.00 0.00 0.00 0.00 0.00 0.00 0.00 0.00 0.00 0.00 0.00 0.00 0.00 0.00 0.00 0.00 0.00 0.00 0.00 0.00 0.00 0.01 0.03 0.04 0.07 0.11 0.16 0.20 0.20 0.14 0.08 0.06 0.04 0.03 0.04 0.02 0.01 0.01 0.00 0.00 0.00
0.00 0.00 0.00 0.00 0.00 0.00 0.00 0.00 0.00 0.00 0.00 0.00 0.00 0.00 0.00 0.00 0.00 0.00 0.00 0.00 0.00 0.00 0.00 0.00 0.00 0.00 0.01 0.01 0.01 0.01 0.00 0.01 0.01 0.01 0.00 0.00 0.00 0.00 0.00 0.00 0.00 0.00 0.00
0.00 0.00 0.00 0.00 0.00 0.00 0.00 0.00 0.00 0.00 0.00 0.00 0.00 0.00 0.00 0.00 0.00 0.00 0.00 0.00 0.00 0.00 0.00 0.00 0.00 0.00 0.00 0.00 0.00 0.00 0.00 0.00 0.00 0.00 0.00 0.00 0.00 0.00 0.00 0.00 0.00 0.00 0.00
0.00 0.00 0.00 0.00 0.00 0.00 0.00 0.00 0.00 0.00 0.00 0.00 0.00 0.00 0.00 0.00 0.00 0.00 0.00 0.00 0.00 0.00 0.00 0.00 0.00 0.00 0.00 0.00 0.00 0.00 0.00 0.00 0.00 0.00 0.00 0.00 0.00 0.00 0.00 0.00 0.00 0.00 0.00
0.00 0.00 0.00 0.00 0.00 0.00 0.00 0.00 0.00 0.00 0.00 0.00 0.00 0.00 0.00 0.00 0.00 0.00 0.00 0.00 0.00 0.00 0.00 0.00 0.00 0.00 0.00 0.00 0.00 0.00 0.00 0.00 0.00 0.00 0.00 0.00 0.00 0.00 0.00 0.00 0.00 0.00 0.00
0.00 0.00 0.00 0.00 0.00 0.00 0.00 0.00 0.00 0.00 0.00 0.00 0.00 0.00 0.00 0.00 0.00 0.00 0.00 0.00 0.00 0.00 0.00 0.00 0.00 0.00 0.00 0.00 0.00 0.00 0.00 0.00 0.00 0.00 0.00 0.00 0.00 0.00 0.00 0.00 0.00 0.00 0.00
MSLP
1016.28 1016.09 1016.12 1016.23 1016.07 1015.87 1016.08 1015.87 1015.60 1015.38 1015.50 1015.62 1015.85 1015.81 1015.55 1015.29 1015.05 1014.76 1014.47 1014.32 1014.03 1013.93 1014.08 1014.20 1014.58 1014.73 1015.14 1015.34 1015.74 1016.05 1016.40 1017.03 1017.39 1018.16 1018.45 1018.38 1018.14 1018.23 1018.11 1018.11 1018.29 1018.35 1018.44
1017.13 1016.88 1016.69 1016.34 1016.18 1016.08 1015.93 1015.74 1015.57 1015.28 1014.97 1015.00 1014.88 1014.97 1014.89 1014.65 1014.52 1014.23 1013.96 1013.88 1013.86 1013.53 1013.47 1013.62 1013.81 1014.09 1014.58 1014.83 1014.94 1015.43 1015.73 1016.11 1016.76 1017.62 1018.33 1018.51 1018.32 1017.94 1017.77 1017.76 1017.85 1017.91 1017.96
1017.88 1017.36 1017.02 1016.80 1016.34 1015.87 1015.63 1015.50 1015.21 1015.00 1014.65 1014.24 1014.17 1014.25 1014.33 1014.26 1014.22 1013.90 1013.66 1013.45 1013.30 1013.24 1013.03 1013.01 1013.38 1013.68 1013.86 1014.14 1014.29 1014.78 1014.94 1015.41 1015.98 1016.16 1016.97 1018.01 1017.81 1017.74 1017.40 1017.31 1017.30 1017.29 1017.42
1018.07 1017.74 1017.19 1016.63 1016.25 1015.69 1015.38 1014.98 1014.65 1014.24 1013.95 1013.76 1013.57 1013.57 1013.62 1013.74 1013.64 1013.53 1013.27 1013.01 1012.81 1012.76 1012.64 1012.49 1012.67 1013.14 1013.37 1013.51 1013.74 1013.84 1014.45 1014.53 1015.08 1015.71 1015.79 1016.03 1016.42 1017.11 1017.25 1016.79 1016.64 1016.76 1016.81
1018.71 1018.07 1017.35 1016.60 1015.99 1015.44 1014.73 1014.28 1013.87 1013.40 1013.09 1012.86 1012.76 1012.71 1012.78 1012.88 1012.93 1013.04 1012.95 1012.75 1012.47 1012.17 1012.22 1012.13 1012.32 1012.50 1012.77 1012.94 1013.02 1013.39 1013.76 1013.95 1014.15 1014.34 1015.23 1015.44 1015.84 1016.04 1016.42 1016.55 1016.46 1016.63 1016.22
1018.47 1018.00 1017.14 1016.25 1015.41 1014.82 1013.99 1013.44 1012.85 1012.32 1011.89 1011.83 1011.82 1011.74 1011.82 1012.24 1012.51 1012.57 1012.47 1012.32 1012.09 1011.86 1011.73 1011.75 1011.88 1011.97 1012.15 1012.37 1012.60 1012.66 1012.85 1013.27 1013.31 1013.75 1014.01 1014.35 1014.83 1015.23 1015.66 1016.00 1016.06 1015.97 1015.79
1018.91 1017.90 1016.81 1015.83 1014.85 1014.24 1013.44 1012.82 1012.19 1011.55 1010.65 1010.66 1010.76 1010.91 1011.12 1011.51 1011.75 1011.79 1011.88 1011.90 1011.70 1011.53 1011.40 1011.38 1011.50 1011.57 1011.68 1011.82 1012.14 1012.36 1012.49 1012.81 1012.93 1013.09 1013.30 1013.52 1013.66 1014.10 1014.54 1014.90 1015.17 1015.38 1015.34
1018.57 1017.58 1016.64 1015.69 1014.84 1013.95 1013.27 1012.57 1011.79 1010.86 1010.16 1009.93 1010.02 1010.22 1010.48 1010.81 1011.12 1011.15 1011.21 1011.28 1011.17 1011.07 1011.03 1011.04 1011.05 1011.09 1011.16 1011.36 1011.56 1011.83 1012.06 1012.23 1012.41 1012.28 1012.67 1012.95 1013.25 1013.63 1014.02 1013.88 1014.60 1015.02 1014.95
1017.92 1017.03 1016.21 1015.46 1014.65 1013.78 1013.02 1012.28 1011.54 1010.44 1009.66 1009.26 1009.22 1009.35 1009.61 1009.92 1010.08 1010.25 1010.39 1010.60 1010.57 1010.51 1010.49 1010.54 1010.55 1010.61 1010.65 1010.77 1011.01 1011.28 1011.39 1011.74 1011.84 1012.03 1012.41 1012.70 1012.73 1012.90 1013.40 1013.73 1013.98 1014.30 1014.83
1017.56 1016.80 1016.08 1015.29 1014.46 1013.67 1012.85 1012.09 1011.34 1010.56 1009.65 1008.87 1008.71 1008.91 1009.07 1009.28 1009.44 1009.68 1009.87 1010.02 1010.05 1010.06 1010.04 1009.96 1010.08 1010.15 1010.21 1010.33 1010.51 1010.81 1010.97 1011.09 1011.11 1011.39 1011.79 1012.17 1012.36 1012.55 1012.85 1013.29 1013.40 1013.65 1013.78
1017.44 1016.80 1016.01 1015.27 1014.44 1013.44 1012.57 1011.86 1011.14 1010.41 1009.63 1009.02 1008.59 1008.55 1008.77 1008.87 1009.00 1009.22 1009.29 1009.42 1009.54 1009.63 1009.62 1009.59 1009.60 1009.78 1009.94 1010.04 1010.28 1010.26 1010.33 1010.60 1010.69 1010.89 1011.29 1011.41 1011.60 1012.09 1012.53 1012.61 1012.80 1012.56 1013.09
1017.45 1016.71 1015.93 1015.25 1014.33 1013.42 1012.53 1011.75 1011.00 1010.34 1009.60 1009.10 1008.66 1008.21 1008.21 1008.46 1008.69 1008.78 1008.87 1009.05 1009.27 1009.34 1009.40 1009.40 1009.40 1009.41 1009.54 1009.70 1009.90 1010.05 1009.86 1009.98 1010.15 1010.18 1010.40 1010.38 1011.03 1011.20 1011.53 1011.78 1011.77 1011.79 1012.19
1017.34 1016.58 1015.91 1015.00 1014.23 1013.47 1012.76 1012.01 1011.33 1010.53 1009.68 1009.18 1008.65 1008.14 1008.17 1008.15 1008.26 1008.43 1008.43 1008.51 1008.70 1008.89 1009.03 1009.12 1009.20 1009.25 1009.30 1009.39 1009.43 1009.45 1009.51 1009.43 1009.36 1009.54 1009.80 1009.86 1010.15 1010.42 1010.41 1010.46 1010.94 1011.16 1011.40
1017.43 1016.89 1016.09 1015.41 1014.41 1013.53 1012.97 1012.45 1011.87 1011.17 1010.44 1009.66 1009.09 1008.71 1008.48 1008.21 1008.03 1008.01 1008.12 1008.20 1008.29 1008.44 1008.60 1008.67 1008.73 1008.78 1008.85 1008.88 1008.87 1008.93 1008.97 1008.92 1008.83 1008.80 1008.89 1009.31 1009.65 1009.53 1009.69 1010.05 1010.19 1010.33 1010.61
1017.46 1017.09 1016.46 1016.02 1015.14 1014.07 1013.48 1012.85 1012.51 1011.80 1011.01 1010.27 1009.67 1009.38 1009.03 1008.65 1008.28 1008.20 1008.20 1008.28 1008.44 1008.57 1008.58 1008.66 1008.73 1008.77 1008.75 1008.75 1008.77 1008.44 1008.47 1008.46 1008.48 1008.27 1008.32 1008.59 1008.95 1008.94 1008.95 1009.39 1009.65 1009.94 1010.34
1017.49 1017.28 1016.81 1016.33 1015.85 1015.24 1014.47 1013.94 1013.22 1012.54 1011.67 1010.93 1010.35 1010.10 1009.89 1009.49 1009.21 1009.08 1009.11 1009.13 1009.11 1009.19 1009.05 1009.14 1009.08 1009.08 1008.79 1008.65 1008.56 1008.65 1008.33 1008.18 1008.09 1007.92 1008.05 1008.83 1008.96 1009.27 1009.40 1009.58 1009.85 1010.02 1009.90
1017.31 1017.31 1017.00 1016.50 1016.16 1015.74 1015.27 1014.71 1013.96 1013.30 1012.54 1011.88 1011.30 1010.99 1010.65 1010.29 1010.12 1010.05 1010.05 1010.07 1009.84 1009.98 1009.87 1009.78 1009.55 1009.35 1009.01 1008.53 1008.21 1008.13 1008.33 1008.47 1008.48 1008.56 1008.80 1009.24 1009.46 1009.47 1009.94 1010.30 1010.75 1010.66 1010.85
1017.01 1017.13 1016.99 1016.70 1016.32 1015.85 1015.57 1015.17 1014.55 1013.92 1013.32 1012.69 1012.13 1011.94 1011.69 1011.27 1010.94 1010.74 1010.69 1010.61 1010.53 1010.56 1010.46 1010.22 1009.99 1009.62 1009.33 1008.86 1008.35 1008.08 1008.42 1008.81 1009.18 1009.26 1009.61 1009.81 1009.90 1010.35 1010.32 1010.83 1010.77 1011.63 1011.40
1016.53 1016.64 1016.68 1016.64 1016.47 1016.19 1015.79 1015.44 1014.97 1014.52 1014.02 1013.58 1013.16 1012.73 1012.40 1011.99 1011.69 1011.49 1011.39 1011.28 1011.22 1011.15 1011.10 1011.02 1010.65 1010.34 1009.89 1009.64 1009.17 1009.12 1009.29 1009.66 1009.97 1010.09 1010.10 1010.60 1010.85 1011.12 1010.98 1011.13 1011.32 1011.81 1012.07
1016.24 1016.34 1016.45 1016.45 1016.47 1016.22 1015.96 1015.76 1015.49 1015.13 1014.75 1014.37 1014.06 1013.53 1013.09 1012.76 1012.54 1012.36 1012.10 1011.99 1011.85 1011.83 1011.65 1011.65 1011.36 1010.95 1010.67 1010.22 1009.77 1010.08 1010.31 1010.55 1010.80 1011.07 1011.40 1011.36 1011.53 1011.71 1011.58 1011.38 1011.59 1011.99 1012.33
1015.87 1015.96 1016.23 1016.40 1016.32 1016.15 1016.05 1016.05 1015.83 1015.58 1015.22 1014.88 1014.53 1014.23 1013.89 1013.57 1013.34 1013.13 1012.82 1012.74 1012.63 1012.50 1012.37 1012.14 1012.00 1011.70 1011.39 1010.95 1010.52 1011.01 1010.85 1011.24 1011.66 1011.65 1011.94 1012.09 1012.18 1012.19 1012.19 1012.31 1012.60 1012.70 1012.93
1015.58 1015.71 1016.00 1016.18 1016.12 1016.10 1016.11 1016.17 1016.07 1015.69 1015.36 1015.10 1014.87 1014.62 1014.33 1014.06 1013.81 1013.74 1013.67 1013.60 1013.55 1013.36 1013.15 1012.95 1012.79 1012.67 1012.20 1011.80 1011.72 1011.72 1011.70 1011.81 1011.82 1012.40 1012.89 1013.08 1013.23 1013.32 1013.28 1013.37 1013.48 1013.51 1013.63
1015.14 1015.30 1015.57 1015.78 1015.87 1015.93 1015.98 1016.05 1015.85 1015.68 1015.53 1015.35 1015.10 1014.87 1014.63 1014.52 1014.28 1014.13 1014.05 1013.96 1013.87 1013.80 1013.83 1013.86 1013.92 1013.84 1013.65 1013.40 1013.07 1012.88 1012.76 1012.71 1012.94 1013.26 1013.48 1013.69 1013.74 1013.72 1013.70 1013.76 1013.81 1013.88 1013.87
1014.58 1014.83 1015.17 1015.34 1015.42 1015.38 1015.47 1015.38 1015.27 1015.16 1015.22 1015.17 1014.99 1014.82 1014.72 1014.71 1014.64 1014.51 1014.51 1014.43 1014.37 1014.28 1014.25 1014.36 1014.50 1014.41 1014.24 1014.09 1013.82 1013.62 1013.41 1013.38 1013.54 1013.71 1013.89 1014.01 1014.07 1014.06 1014.20 1014.29 1014.34 1014.33 1014.36
1013.78 1014.03 1014.23 1014.39 1014.42 1014.44 1014.52 1014.53 1014.50 1014.54 1014.66 1014.67 1014.61 1014.58 1014.60 1014.67 1014.73 1014.70 1014.61 1014.60 1014.50 1014.31 1014.33 1014.44 1014.53 1014.65 1014.64 1014.34 1014.12 1014.05 1013.90 1013.81 1013.96 1014.29 1014.58 1014.79 1014.89 1014.88 1014.84 1014.80 1014.63 1014.54 1014.62
1012.91 1013.26 1013.39 1013.57 1013.50 1013.61 1013.65 1013.76 1013.83 1014.05 1014.25 1014.41 1014.47 1014.52 1014.62 1014.75 1014.89 1015.03 1015.09 1014.94 1014.88 1014.72 1014.48 1014.44 1014.51 1014.56 1014.53 1014.46 1014.34 1014.15 1013.97 1014.03 1014.13 1014.43 1014.81 1015.02 1015.12 1015.21 1015.22 1015.17 1015.22 1015.25 1015.17
Thickness
5620 5622 5623 5625 5628 5632 5629 5631 5635 5638 5640 5641 5643 5646 5654 5658 5662 5666 5671 5675 5680 5685 5687 5688 5690 5692 5692 5692 5689 5690 5687 5683 5680 5674 5673 5675 5679 5680 5681 5680 5679 5678 5677
5599 5604 5605 5609 5609 5610 5615 5619 5622 5625 5629 5631 5635 5637 5642 5649 5656 5660 5663 5667 5669 5675 5680 5685 5687 5688 5685 5686 5687 5685 5684 5682 5677 5670 5663 5661 5667 5676 5676 5676 5677 5676 5674
5581 5586 5588 5587 5589 5595 5598 5603 5607 5612 5617 5622 5625 5627 5630 5637 5643 5651 5656 5659 5661 5665 5670 5674 5677 5677 5680 5679 5682 5679 5680 5676 5673 5674 5665 5653 5660 5663 5671 5674 5673 5674 5672
5565 5566 5567 5570 5573 5578 5580 5586 5591 5598 5605 5609 5612 5616 5620 5624 5633 5636 5642 5648 5652 5656 5658 5662 5666 5668 5670 5672 5673 5676 5673 5674 5669 5665 5668 5667 5665 5657 5659 5668 5670 5669 5670
5540 5542 5545 5550 5554 5559 5565 5568 5574 5582 5589 5595 5599 5603 5608 5614 5617 5621 5627 5634 5640 5645 5649 5652 5654 5657 5660 5664 5666 5666 5665 5667 5667 5666 5660 5661 5658 5659 5657 5657 5662 5660 5665
5528 5527 5532 5533 5537 5539 5546 5549 5556 5565 5572 5579 5585 5592 5597 5600 5602 5606 5613 5621 5626 5631 5636 5641 5643 5646 5650 5652 5656 5659 5659 5659 5661 5660 5660 5658 5655 5654 5649 5650 5653 5655 5659
5515 5519 5524 5519 5523 5525 5531 5538 5546 5553 5562 5565 5571 5577 5584 5586 5592 5595 5600 5606 5613 5618 5622 5624 5628 5633 5636 5640 5641 5643 5647 5648 5650 5652 5654 5654 5655 5654 5652 5648 5650 5650 5652
5510 5513 5514 5508 5505 5509 5515 5524 5535 5547 5555 5558 5560 5564 5568 5573 5577 5583 5587 5592 5597 5601 5604 5606 5610 5615 5621 5623 5626 5626 5632 5637 5640 5644 5645 5646 5647 5646 5645 5648 5641 5636 5643
5512 5512 5509 5505 5499 5501 5506 5515 5524 5539 5549 5554 5557 5560 5562 5565 5570 5573 5575 5578 5583 5587 5590 5594 5598 5604 5607 5609 5613 5615 5620 5622 5626 5629 5630 5632 5638 5638 5637 5636 5636 5635 5629
5514 5511 5507 5503 5501 5502 5504 5510 5520 5530 5541 5551 5554 5555 5558 5561 5565 5567 5568 5569 5570 5574 5576 5580 5583 5588 5592 5595 5597 5600 5605 5608 5613 5617 5619 5623 5624 5626 5628 5627 5629 5628 5629
5514 5511 5507 5504 5502 5506 5511 5514 5521 5528 5535 5543 5550 5555 5557 5560 5563 5562 5562 5561 5561 5561 5564 5566 5568 5571 5575 5578 5579 5584 5589 5592 5597 5601 5604 5610 5614 5615 5616 5618 5620 5625 5620
5515 5514 5511 5507 5508 5508 5511 5517 5524 5529 5534 5539 5547 5556 5559 5559 5560 5559 5557 5554 5551 5551 5551 5552 5555 5557 5559 5560 5561 5564 5571 5575 5580 5587 5591 5601 5602 5607 5612 5604 5612 5615 5615
5516 5517 5516 5516 5517 5516 5515 5518 5524 5530 5539 5544 5551 5560 5561 5562 5559 5553 5548 5544 5542 5539 5537 5536 5537 5538 5539 5540 5544 5549 5553 5560 5567 5574 5579 5587 5591 5597 5605 5607 5607 5608 5608
5515 5514 5517 5518 5522 5524 5522 5522 5526 5531 5536 5542 5548 5553 5557 5558 5559 5552 5543 5535 5532 5530 5526 5524 5523 5524 5525 5526 5529 5534 5542 5547 5557 5566 5573 5578 5582 5593 5598 5599 5599 5602 5600
5517 5516 5518 5519 5522 5525 5525 5526 5527 5530 5537 5542 5546 5547 5549 5552 5555 5549 5542 5532 5526 5523 5520 5515 5512 5510 5511 5512 5513 5520 5528 5537 5548 5560 5568 5572 5578 5584 5590 5587 5589 5590 5589
5521 5519 5522 5523 5524 5525 5526 5526 5530 5532 5539 5545 5546 5546 5543 5546 5547 5543 5534 5527 5520 5514 5512 5507 5506 5503 5504 5503 5502 5503 5513 5521 5533 5548 5555 5558 5564 5569 5572 5572 5571 5574 5580
5528 5525 5526 5528 5528 5530 5531 5531 5534 5536 5539 5543 5545 5544 5544 5544 5542 5538 5530 5523 5520 5510 5506 5500 5498 5497 5498 5500 5500 5501 5507 5512 5520 5528 5536 5545 5552 5555 5557 5558 5556 5558 5558
5535 5531 5529 5530 5532 5534 5534 5534 5536 5539 5541 5544 5545 5543 5542 5541 5539 5536 5531 5527 5523 5516 5508 5505 5501 5499 5498 5498 5501 5503 5504 5506 5509 5517 5522 5534 5543 5542 5547 5545 5548 5542 5543
5542 5539 5537 5536 5535 5536 5537 5536 5537 5539 5541 5543 5543 5543 5542 5542 5539 5536 5532 5528 5524 5519 5514 5510 5505 5502 5503 5501 5505 5506 5506 5506 5509 5514 5523 5526 5529 5531 5534 5535 5535 5533 5532
5547 5545 5543 5541 5539 5539 5539 5537 5536 5537 5538 5538 5539 5540 5539 5540 5538 5534 5532 5529 5526 5523 5520 5514 5512 5511 5509 5509 5512 5510 5510 5509 5510 5512 5513 5519 5522 5523 5527 5527 5528 5527 5522
5552 5551 5547 5543 5542 5542 5540 5537 5536 5536 5537 5537 5537 5536 5535 5535 5533 5532 5531 5528 5525 5522 5520 5517 5514 5514 5514 5515 5517 5511 5515 5515 5513 5515 5514 5515 5515 5516 5517 5516 5514 5512 5509
5556 5553 5549 5546 5544 5543 5540 5537 5535 5535 5536 5536 5535 5535 5534 5533 5532 5529 5525 5523 5519 5516 5514 5513 5511 5510 5511 5513 5512 5511 5511 5511 5512 5508 5504 5503 5502 5502 5502 5500 5498 5496 5493
5557 5555 5551 5547 5544 5542 5540 5537 5536 5535 5533 5532 5531 5531 5530 5528 5526 5524 5521 5519 5516 5513 5510 5507 5503 5500 5500 5499 5501 5502 5502 5502 5499 5496 5494 5492 5490 5489 5489 5487 5484 5481 5479
5560 5557 5553 5549 5546 5544 5541 5540 5538 5536 5533 5530 5528 5527 5526 5522 5520 5518 5514 5511 5509 5507 5505 5501 5496 5493 5492 5491 5490 5489 5489 5489 5486 5483 5481 5479 5477 5476 5473 5469 5466 5463 5459
5563 5560 5555 5552 5550 5547 5544 5542 5539 5536 5532 5529 5527 5525 5521 5517 5513 5511 5507 5504 5502 5501 5497 5493 5489 5484 5481 5482 5482 5480 5479 5478 5476 5471 5467 5463 5459 5456 5453 5450 5448 5444 5439
5566 5560 5557 5553 5552 5548 5545 5542 5537 5533 5529 5525 5522 5518 5514 5509 5505 5500 5496 5495 5492 5490 5489 5486 5481 5478 5475 5473 5472 5471 5470 5467 5463 5456 5450 5445 5441 5437 5433 5430 5426 5422 5417